This is the latest recevied weather packets stored in our database for station/object KA2FNK. If no packets are shown the sender has not sent any weather packets the latest 10 day(s).
| Time | Temp. | Humidity | Pressure | Rain* | Wind** | Luminosity | Snow |
|---|---|---|---|---|---|---|---|
| 1778132495 | 8.89° C | 63% | 1017.3 hPa | 0 mm | - | - | - |
| 1778132194 | 8.89° C | 62% | 1017.4 hPa | 0 mm | - | - | - |
| 1778131893 | 8.89° C | 62% | 1017.3 hPa | 0 mm | - | - | - |
| 1778131592 | 8.89° C | 62% | 1017.3 hPa | 0 mm | - | - | - |
| 1778131292 | 8.89° C | 63% | 1017.3 hPa | 0 mm | - | - | - |
| 1778130990 | 8.89° C | 62% | 1017.3 hPa | 0 mm | - | - | - |
| 1778130689 | 8.89° C | 62% | 1017.3 hPa | 0 mm | - | - | - |
| 1778130388 | 8.89° C | 62% | 1017.3 hPa | 0 mm | - | - | - |
| 1778130088 | 8.89° C | 63% | 1017.4 hPa | 0 mm | - | - | - |
| 1778129786 | 8.89° C | 63% | 1017.3 hPa | 0 mm | - | - | - |
| 1778129485 | 8.89° C | 69% | 1017.3 hPa | 0 mm | - | - | - |
| 1778129184 | 8.89° C | 70% | 1017.3 hPa | 0 mm | - | - | - |
| 1778128883 | 8.89° C | 71% | 1017.3 hPa | 0 mm | - | - | - |
| 1778128582 | 8.89° C | 70% | 1017.3 hPa | 0 mm | - | - | - |
| 1778128281 | 8.89° C | 71% | 1017.2 hPa | 0 mm | - | - | - |
| 1778127981 | 8.89° C | 69% | 1017.2 hPa | 0 mm | - | - | - |
| 1778127680 | 8.89° C | 71% | 1017.2 hPa | 0 mm | - | - | - |
| 1778127379 | 8.89° C | 71% | 1017.3 hPa | 0 mm | - | - | - |
| 1778127077 | 8.89° C | 71% | 1017.3 hPa | 0 mm | - | - | - |
| 1778126776 | 8.89° C | 72% | 1017.5 hPa | 0 mm | - | - | - |
| 1778126476 | 8.89° C | 71% | 1017.4 hPa | 0 mm | - | - | - |
| 1778126175 | 8.89° C | 71% | 1017.5 hPa | 0 mm | - | - | - |
| 1778125873 | 8.89° C | 61% | 1017.6 hPa | 0 mm | - | - | - |
| 1778125573 | 8.89° C | 61% | 1017.6 hPa | 0 mm | - | - | - |
| 1778125271 | 8.89° C | 60% | 1017.6 hPa | 0 mm | - | - | - |
* Rain latest hour (hover to see other rain measurements)
** Current wind speed in m/s (hover to see current wind gust speed)